Location: Middelsbur
(53.6609°N, 7.5020°E)
Time: 00:24:27
(UTC+00:00)

Nadezhda 3 Rocket - Pass Details

Date: 06 July 2020
Orbit: 957 x 999 km, 82.9° (Epoch: 03 August)

Event Time Altitude Azimuth Distance (km) Brightness Sun altitude
Rises 21:40:38 0° 349° (N) 3,737 8.8 -9.9°
Reaches altitude 10° 21:43:11 10° 351° (N) 2,782 7.8 -10.0°
Maximum altitude 21:49:36 79° 78° (ENE) 1,021 4.1 -10.4°
Enters shadow 21:55:17 13° 165° (SSE) 2,504 5.5 -10.8°
